Weather History for Fort Indiantown Gap, PA

Change the Weather History Date:

Thursday, August 29, 2013

  Actual Average Record
Temperature  
Mean Temperature 73 °F -  
Max Temperature 81 °F 78 °F 91 °F (2010)
Min Temperature 66 °F 63 °F 51 °F (2010)
Cooling Degree Days 8    
Growing Degree Days 23 (Base 50)    
Moisture  
Dew Point 68 °F    
Average Humidity 88    
Maximum Humidity 100    
Minimum Humidity 68    
Precipitation  
Precipitation 0.00 in - - ()
Sea Level Pressure  
Sea Level Pressure 30.00 in    
Wind  
Wind Speed 3 mph (NE)    
Max Wind Speed 5 mph    
Max Gust Speed -    
Visibility 8 miles    
Events Rain    
Averages and records for this station are not official NWS values.
T = Trace of Precipitation, MM = Missing Value Source: NWS Daily Summary

Daily Weather History Graph

Daily Weather History Graph

Search for Another Location

Airport:

Trip Planner

Search our weather history database for the weather conditions in past years. The results will help you decide how hot, cold, wet, or windy it might be!

Date:

Astronomy

Aug. 29, 2013 Rise Set
Actual Time 6:30 AM EDT 7:42 PM EDT
Civil Twilight 6:02 AM EDT 8:10 PM EDT
Nautical Twilight 5:29 AM EDT 8:44 PM EDT
Astronomical Twilight 4:53 AM EDT 9:19 PM EDT
Moon 12:20 AM EDT (8/29) 3:10 PM EDT (8/29)
Length of Visible Light 14h 07m
Length of Day
13h 11m
Last Quarter, 38% of the Moon is Illuminated
Aug 29
Last Quarter
Sep 5
New
Sep 12
First Quarter
Sep 19
Full
Sep 26
Last Quarter

Hourly Weather History & Observations

Time (EDT) Temp. Heat Index Dew Point Humidity Pressure Visibility Wind Dir Wind Speed Gust Speed Precip Events Conditions
12:58 AM 69.3 °F - 69.1 °F 99% 29.90 in 9.0 mi NNE 2.3 mph - N/A   Partly Cloudy
1:26 AM 68.0 °F - 68.0 °F 100% 29.91 in 2.5 mi NNE 2.3 mph - N/A   Clear
1:36 AM 68.0 °F - 68.0 °F 100% 29.91 in 5.0 mi NNE 4.6 mph - N/A   Clear
1:58 AM 68.4 °F - 68.0 °F 99% 29.91 in 10.0 mi NNE 2.3 mph - N/A   Clear
2:58 AM 66.9 °F - 66.6 °F 99% 29.92 in 6.0 mi NNE 1.2 mph - N/A   Clear
3:58 AM 67.8 °F - 67.6 °F 99% 29.92 in 10.0 mi NE 1.2 mph - N/A   Clear
4:58 AM 67.1 °F - 66.9 °F 99% 29.94 in 6.0 mi NE 2.3 mph - N/A   Clear
5:40 AM 68.0 °F - 66.2 °F 94% 29.95 in 8.0 mi ENE 3.5 mph - N/A   Mostly Cloudy
5:52 AM 68.0 °F - 66.2 °F 94% 29.96 in 6.0 mi East 2.3 mph - N/A   Mostly Cloudy
5:58 AM 67.3 °F - 67.1 °F 99% 29.96 in 5.0 mi NE 2.3 mph - N/A   Overcast
6:21 AM 68.0 °F - 68.0 °F 100% 29.96 in 6.0 mi NNE 1.2 mph - N/A   Overcast
6:29 AM 68.0 °F - 68.0 °F 100% 29.96 in 7.0 mi Calm Calm - N/A   Overcast
6:58 AM 68.4 °F - 68.0 °F 99% 29.98 in 7.0 mi NE 2.3 mph - N/A   Overcast
7:38 AM 69.8 °F - 68.0 °F 94% 29.99 in 7.0 mi North 2.3 mph - N/A   Overcast
7:58 AM 69.6 °F - 69.3 °F 99% 29.99 in 8.0 mi NNE 2.3 mph - N/A   Overcast
8:58 AM 70.9 °F - 69.6 °F 96% 30.01 in 9.0 mi NNE 4.6 mph - N/A   Overcast
9:58 AM 72.5 °F - 68.9 °F 88% 30.02 in 10.0 mi NNE 3.5 mph - N/A   Overcast
10:54 AM 73.4 °F - 68.0 °F 83% 30.03 in 10.0 mi North 3.5 mph - N/A   Overcast
10:58 AM 72.5 °F - 68.7 °F 88% 30.03 in 10.0 mi North 3.5 mph - N/A   Overcast
11:58 AM 73.4 °F - 68.4 °F 84% 30.04 in 10.0 mi Variable 2.3 mph - N/A   Overcast
12:51 PM 75.2 °F - 68.0 °F 78% 30.04 in 10.0 mi ENE 4.6 mph - N/A Rain Light Rain
12:58 PM 74.7 °F - 68.4 °F 81% 30.04 in 10.0 mi Variable 3.5 mph - 0.00 in Rain Light Rain
1:00 PM 75.2 °F - 69.8 °F 83% 30.04 in 10.0 mi Variable 3.5 mph - N/A   Overcast
1:09 PM 75.2 °F - 69.8 °F 83% 30.04 in 10.0 mi ENE 3.5 mph - N/A Rain Light Rain
1:18 PM 75.2 °F - 69.8 °F 83% 30.04 in 10.0 mi ESE 2.3 mph - N/A   Overcast
1:26 PM 75.2 °F - 69.8 °F 83% 30.04 in 10.0 mi Variable 4.6 mph - N/A   Overcast
1:30 PM 75.2 °F - 68.0 °F 78% 30.04 in 10.0 mi ESE 3.5 mph - N/A   Overcast
1:34 PM 75.2 °F - 68.0 °F 78% 30.04 in 10.0 mi Calm Calm - N/A   Overcast
1:53 PM 77.0 °F - 69.8 °F 78% 30.03 in 10.0 mi East 3.5 mph - N/A Rain Light Rain
1:58 PM 76.3 °F - 69.1 °F 78% 30.03 in 10.0 mi Variable 2.3 mph - 0.00 in Rain Light Rain
1:59 PM 77.0 °F - 69.8 °F 78% 30.03 in 10.0 mi ESE 1.2 mph - N/A   Mostly Cloudy
2:41 PM 78.8 °F - 68.0 °F 69% 30.02 in 10.0 mi Variable 3.5 mph - N/A   Mostly Cloudy
2:43 PM 78.8 °F - 68.0 °F 69% 30.02 in 10.0 mi SSW 3.5 mph - N/A   Scattered Clouds
2:58 PM 79.3 °F - 68.7 °F 70% 30.02 in 10.0 mi Variable 3.5 mph - 0.00 in   Partly Cloudy
3:58 PM 80.6 °F 83.6 °F 69.3 °F 68% 30.01 in 10.0 mi Variable 4.6 mph - N/A   Partly Cloudy
4:58 PM 80.8 °F 83.9 °F 69.3 °F 68% 30.00 in 10.0 mi South 4.6 mph - N/A   Clear
5:58 PM 80.4 °F 83.4 °F 68.9 °F 68% 30.00 in 10.0 mi South 4.6 mph - N/A   Clear
6:58 PM 79.0 °F - 68.9 °F 71% 30.01 in 10.0 mi South 4.6 mph - N/A   Clear
7:58 PM 73.2 °F - 70.3 °F 91% 30.01 in 10.0 mi WNW 3.5 mph - N/A   Clear
8:58 PM 70.0 °F - 69.6 °F 99% 30.03 in 7.0 mi ENE 2.3 mph - N/A   Clear
9:58 PM 68.7 °F - 68.5 °F 99% 30.02 in 5.0 mi East 3.5 mph - N/A   Scattered Clouds
10:58 PM 69.3 °F - 68.9 °F 99% 30.01 in 9.0 mi West 2.3 mph - N/A   Clear
11:26 PM 68.0 °F - 68.0 °F 100% 30.03 in 2.5 mi NNE 2.3 mph - N/A   Clear
11:32 PM 68.0 °F - 66.2 °F 94% 30.03 in 1.8 mi ENE 3.5 mph - N/A   Clear
11:34 PM 68.0 °F - 66.2 °F 94% 30.03 in 2.0 mi NE 3.5 mph - N/A   Clear
11:36 PM 68.0 °F - 66.2 °F 94% 30.03 in 3.0 mi ENE 3.5 mph - N/A   Clear
11:58 PM 67.3 °F - 67.1 °F 99% 30.03 in 3.0 mi ENE 3.5 mph - N/A   Clear